EHI
0 0 0 0 0 0 0 0 0 0 0 0 0 0 0 0 0 0 0 0 0 0 0 0 0 0 0 0 0 0 0 0 0 0 0 0 0 0 0 0 0 0 0 0
0 0 0 0 0 0 0 0 0 0 0 0 0 0 0 0 0 0 0 0 0 0 0 0 0 0 0 0 0 0 0 0 0 0 0 0 0 0 0 0 0 0 0 0
0 0 0 0 0 0 0 0 0 0 0 0 0 0 0 0 0 0 0 0 0 0 0 0 0 0 0 0 0 0 0 0 0 0 0 0 0 0 0 0 0 0 0 0
0 0 0 0 0 0 0 0 0 0 0 0 0 0 0 0 0 0 0 0 0 0 0 0 0 0 0 0 0 0 0 0 0 0 0 0 0 0 0 0 0 0 0 0
0 0 0 0 0 0 0 0 0 0 0 0 0 0 0 0 0 0 0 0 0 0 0 0 0 0 0 0 0 0 0 0 0 0 0 0 0 0 0 0 0 0 0 0
0 0 0 0 0 0 0 0 0 0 0 0 0 0 0 0 0 0 0 0 0 0 0 0 0 0 0 0 0 0 0 0 0 0 0 0 0 0 0 0 0 0 0 0
0 0 0 0 0 0 0 0 0 0 0 0 0 0 0 0 0 0 0 0 0 0 0 0 0 0 0 0 0 0 0 0 0 0 0 0 0 0 0 0 0 0 0 0
0 0 0 0 0 0 0 0 0 0 0 0 0 0 0 0 0 0 0 0 0 0 0 0 0 0 0 0 0 0 0 0 0 0 0 0 0 0 0 0 0 0 0 0
0 0 0 0 0 0 0 0 0 0 0 0 0 0 0 0 0 0 0 0 0 0 0 0 0 0 0 0 0 0 0 0 0 0 0 0 0 0 0 0 0 0 0 0
0 0 0 0 0 0 0 0 0 0 0 0 0 0 0 0 0 0 0 0 0 0 0 0 0 0 0 0 0 0 0 0 0 0 0 0 0 0 0 0 0 0 0 0
0 0 0 0 0 0 0 0 0 0 0 0 0 0 0 0 0 0 0 0 0 0 0 0 0 0 0 0 0 0 0 0 0 0 0 0 0 0 0 0 0 0 0 0
0 0 0 0 0 0 0 0 0 0 0 0 0 0 0 0 0 0 0 0 0 0 0 0 0 0 0 0 0 0 0 0 0 0 0 0 0 0 0 0 0 0 0 0
0 0 0 0 0 0 0 0 0 0 0 0 0 0 0 0 0 0 0 0 0 0 0 0 0 0 0 0 0 0 0 0 0 0 0 0 0 0 0 0 0 0 0 0
0 0 0 0 0 0 0 0 0 0 0 0 0 0 0 0 0 0 0 0 0 0 0 0 0 0 0 0 0 0 0 0 0 0 0 0 0 0 0 0 0 0 0 0
0 0 0 0 0 0 0 0 0 0 0 0 0 0 0 0 0 0 0 0 0 0 0 0 0 0 0 0 0 0 0 0 0 0 0 0 0 0 0 0 0 0 0 0
0 0 0 0 0 0 0 0 0 0 0 0 0 0 0 0 0 0 0 0 0 0 0 0 0 0 0 0 0 0 0 0 0 0 0 0 0 0 0 0 0 0 0 0
0 0 0 0 0 0 0 0 0 0 0 0 0 0 0 0 0 0 0 0 0 0 0 0 0 0 0 0 0 0 0 0 0 0 0 0 0 0 0 0 0 0 0 0
0 0 0 0 0 0 0 0 0 0 0 0 0 0 0 0 0 0 0 0 0 0 0 0 0 0 0 0 0 0 0 0 0 0 0 0 0 0 0 0 0 0 0 0
0 0 0 0 0 0 0 0 0 0 0 0 0 0 0 0 0 0 0 0 0 0 0 0 0 0 0 0 0 0 0 0 0 0 0 0 0 0 0 0 0 0 0 0
0 0 0 0 0 0 0 0 0 0 0 0 0 0 0 0 0 0 0 0 0 0 0 0 0 0 0 0 0 0 0 0 0 0 0 0 0 0 0 0 0 0 0 0
0 0 0 0 0 0 0 0 0 0 0 0 0 0 0 0 0 0 0 0 0 0 0 0 0 0 0 0 0 0 0 0 0 0 0 0 0 0 0 0 0 0 0 0
0 0 0 0 0 0 0 0 0 0 0 0 0 0 0 0 0 0 0 0 0 0 0 0 0 0 0 0 0 0 0 0 0 0 0 0 0 0 0 0 0 0 0 0
0 0 0 0 0 0 0 0 0 0 0 0 0 0 0 0 0 0 0 0 0 0 0 0 0 0 0 0 0 0 0 0 0 0 0 0 0 0 0 0 0 0 0 0
0 0 0 0 0 0 0 0 0 0 0 0 0 0 0 0 0 0 0 0 0 0 0 0 0 0 0 0 0 0 0 0 0 0 0 0 0 0 0 0 0 0 0 0
0 0 0 0 0 0 0 0 0 0 0 0 0 0 0 0 0 0 0 0 0 0 0 0 0 0 0 0 0 0 0 0 0 0 0 0 0 0 0 0 0 0 0 0
0 0 0 0 0 0 0 0 0 0 0 0 0 0 0 0 0 0 0 0 0 0 0 0 0 0 0 0 0 0 0 0 0 0 0 0 0 0 0 0 0 0 0 0
0 0 0 0 0 0 0 0 0 0 0 0 0 0 0 0 0 0 0 0 0 0 0 0 0 0 0 0 0 0 0 0 0 0 0 0 0 0 0 0 0 0 0 0
Wind_Speed
6 4 5 7 10 12 13 13 12 13 14 15 10 8 7 6 6 6 6 7 7 6 5 5 4 4 4 4 4 4 5 5 6 5 4 4 4 4 4 4 5 5 5 5
6 5 5 8 11 15 16 14 15 13 17 13 8 6 7 8 7 8 9 9 8 7 6 6 6 5 4 4 4 4 5 5 4 4 4 4 4 3 3 3 3 3 4 4
6 3 3 12 14 16 13 13 13 19 21 9 7 10 11 10 9 10 10 9 8 8 8 7 6 6 6 5 4 5 5 4 4 4 4 4 3 3 3 3 3 3 3 4
3 3 12 11 6 11 14 14 15 13 11 10 13 11 9 9 10 11 10 9 8 7 6 5 4 4 4 4 4 5 4 4 4 4 4 3 3 3 3 2 3 3 3 3
4 6 11 10 6 9 11 14 13 17 15 10 5 3 8 9 10 12 10 8 7 6 5 4 5 5 5 4 4 4 4 4 4 5 4 4 3 3 2 2 2 2 2 3
5 6 11 10 5 5 5 11 9 13 15 11 5 5 11 6 8 9 7 5 5 4 4 4 5 6 6 5 5 5 5 4 4 4 4 4 4 3 2 2 2 2 1 2
8 8 12 9 3 7 7 11 5 9 12 9 12 14 7 3 4 5 5 4 4 5 5 5 6 7 6 5 6 5 4 4 4 4 4 3 3 2 2 2 1 1 1 1
8 9 14 6 8 11 10 4 3 4 7 9 12 10 5 4 4 4 4 3 4 5 4 4 6 7 6 6 4 4 4 4 4 3 3 3 3 2 2 2 2 1 0 1
12 13 7 8 10 9 4 5 5 5 5 7 8 8 6 5 5 4 4 4 4 5 4 3 5 6 7 5 5 5 5 4 3 3 2 3 3 3 2 2 1 1 1 2
7 11 9 8 8 7 6 7 6 5 5 5 7 7 6 5 4 4 4 4 4 5 5 4 4 4 5 5 5 6 5 4 3 3 2 2 2 2 2 2 2 1 2 2
10 11 8 9 10 11 9 7 7 6 5 6 7 6 6 6 6 5 4 3 4 5 6 5 4 4 4 5 6 6 5 4 3 3 3 2 1 1 2 2 3 3 3 3
13 9 8 10 10 10 10 10 10 9 7 6 7 8 6 6 5 4 4 4 4 4 5 5 5 5 4 5 6 7 5 4 3 2 2 2 1 1 1 2 3 4 5 5
12 9 9 10 9 8 10 11 10 9 9 7 6 6 6 5 4 4 4 4 5 6 5 5 5 5 4 5 5 6 5 4 3 3 2 2 2 1 1 2 3 4 5 6
9 7 9 10 10 8 8 8 6 6 6 5 4 4 4 3 3 4 5 5 5 5 5 6 6 4 4 5 5 5 4 4 3 3 2 2 2 1 1 1 2 2 3 6
10 10 11 8 7 6 5 5 5 5 5 4 3 4 4 5 5 4 3 4 5 5 5 5 5 4 4 5 5 5 4 3 3 2 2 2 1 1 1 1 2 2 3 4
10 9 9 8 9 8 6 6 7 7 6 5 4 4 4 4 4 3 4 6 6 6 5 5 5 4 5 5 5 4 3 3 2 2 2 2 1 1 1 2 2 2 3 3
9 10 10 9 10 9 8 8 7 7 5 5 5 5 5 5 5 4 4 4 4 5 5 5 5 5 5 5 5 4 3 3 2 1 1 1 1 1 2 2 2 3 4 5
9 11 10 8 8 8 7 6 5 5 5 5 5 5 6 6 6 5 5 6 6 5 4 4 5 5 5 4 4 3 3 2 2 2 1 1 1 2 2 2 3 4 4 5
6 6 6 6 6 6 5 4 4 3 4 5 6 5 5 4 5 6 7 7 6 5 3 4 7 5 4 4 3 3 3 2 1 1 1 2 2 1 2 3 3 4 4 4
4 4 4 3 2 3 3 3 4 4 4 5 6 6 5 5 6 7 6 4 3 3 4 4 5 4 4 3 3 3 3 2 2 1 1 2 2 2 3 3 4 4 4 5
2 2 2 2 2 2 2 4 5 5 4 6 7 7 6 6 5 6 6 4 2 4 4 5 3 3 2 3 3 2 2 2 2 2 2 2 2 3 3 4 4 5 5 5
1 1 2 3 4 4 3 4 5 6 6 6 7 7 8 7 6 5 3 3 3 4 3 3 2 3 2 2 2 2 2 2 2 2 2 2 2 3 4 4 5 5 5 5
3 3 3 4 6 6 6 6 5 6 6 6 7 7 6 5 4 4 3 2 3 3 3 2 2 3 2 2 2 2 1 1 2 2 2 3 3 4 4 5 5 5 5 5
4 4 5 5 7 8 8 6 6 6 7 6 6 6 6 5 4 3 3 4 4 3 2 2 2 2 2 2 1 1 1 1 2 2 3 3 3 4 4 5 5 5 6 7
4 5 6 6 6 6 6 6 7 7 7 6 6 6 4 3 3 3 3 3 4 3 2 2 2 2 2 1 1 1 1 2 3 3 3 3 4 4 5 5 5 6 6 7
5 5 5 5 4 4 4 4 4 4 4 5 5 4 4 4 4 3 3 3 4 3 2 1 1 1 1 0 1 1 2 2 3 3 3 4 5 5 5 6 7 6 7 7
5 5 5 5 5 4 4 4 4 4 4 4 4 3 3 3 3 3 3 3 2 2 1 1 1 1 1 1 1 2 2 2 3 3 4 4 5 5 6 7 6 6 7 7
Wind_Direction
242 228 193 210 211 200 208 213 218 233 235 246 241 239 249 251 250 251 254 249 239 235 235 228 224 221 215 208 191 179 179 190 203 202 199 198 198 199 198 198 203 202 204 212
247 236 230 245 228 213 220 226 234 250 256 247 243 232 244 244 236 242 246 245 241 232 227 224 217 212 206 202 188 172 182 197 195 187 187 192 196 192 190 197 199 196 204 209
236 230 279 251 219 210 214 217 213 235 246 250 241 233 233 234 228 231 239 241 234 225 220 219 211 198 197 194 172 170 183 188 182 179 185 190 183 178 190 196 191 201 211 210
191 174 235 246 201 203 217 229 220 236 247 234 234 239 237 225 220 230 235 236 232 222 217 212 190 178 171 164 166 172 179 184 180 175 181 178 173 187 195 188 193 205 214 218
180 220 263 275 229 195 207 243 225 234 246 248 244 285 268 234 220 227 228 224 219 209 199 185 178 169 155 161 165 171 184 189 186 176 175 175 185 195 191 180 195 206 210 212
183 208 238 247 216 176 164 259 236 223 237 237 163 233 258 245 220 226 226 216 204 185 168 173 175 156 155 169 173 189 193 187 177 170 171 180 188 184 172 173 192 192 212 216
201 225 255 249 187 131 183 243 244 212 225 209 198 221 239 229 218 210 207 203 183 169 175 184 164 154 164 173 193 193 166 155 156 162 168 169 161 156 154 154 153 174 224 255
192 218 245 210 152 186 220 243 246 227 221 215 227 239 238 229 218 203 195 187 174 169 179 170 159 159 170 189 186 151 145 146 151 154 151 143 143 144 144 146 150 182 248 295
200 221 239 188 206 224 220 233 239 228 229 222 233 239 230 223 218 208 199 192 178 169 167 166 168 168 176 184 154 144 141 146 147 139 135 144 151 154 145 150 165 214 228 267
235 249 247 242 251 258 242 237 248 247 239 214 226 233 224 220 216 210 202 193 173 160 169 182 177 172 169 156 149 143 145 147 146 141 137 133 143 157 165 181 192 220 240 260
243 255 270 257 239 243 247 253 265 259 242 225 219 229 220 218 216 209 198 185 172 176 181 182 166 159 153 150 144 141 143 146 145 144 148 145 150 188 199 209 211 223 227 229
236 231 221 244 241 237 241 246 246 245 250 238 217 224 219 218 213 196 187 174 171 174 172 167 158 156 154 151 147 144 146 151 153 152 153 153 145 17 322 275 281 281 274 271
241 243 239 255 255 237 236 243 241 233 234 234 225 216 211 212 199 179 175 176 182 179 168 157 154 155 155 148 147 149 155 159 158 159 163 170 176 179 280 327 315 304 297 298
242 244 255 252 251 248 242 246 242 240 236 227 218 202 190 185 172 177 186 187 170 152 149 150 149 154 150 143 139 140 144 155 156 161 166 175 189 207 221 251 296 304 305 305
238 232 239 248 254 258 252 242 233 237 232 222 193 185 180 178 186 190 168 144 133 133 142 144 144 148 141 137 136 139 140 147 150 154 161 170 182 199 226 247 264 284 297 304
238 239 242 244 248 253 248 238 235 237 223 211 194 193 188 171 155 139 137 143 144 154 157 149 148 147 141 136 132 132 139 154 151 149 153 166 182 203 232 247 263 271 277 283
230 236 235 241 244 245 240 236 235 236 218 202 195 175 152 137 130 132 132 131 131 135 140 143 142 138 138 138 136 139 141 150 147 139 164 186 199 216 230 243 259 272 275 281
234 237 230 227 232 234 236 231 224 215 208 195 163 150 155 160 161 154 140 123 111 104 112 127 133 133 132 135 135 139 143 148 156 167 181 198 217 216 225 244 257 268 277 286
245 243 241 235 229 221 217 211 199 187 168 150 148 154 155 152 145 139 135 133 135 136 138 137 135 126 130 139 129 135 140 147 156 178 199 236 262 240 244 252 260 266 272 278
266 256 243 231 206 191 186 161 142 138 139 134 128 125 124 126 129 131 129 127 140 145 143 140 130 129 133 143 130 138 148 159 173 191 213 228 241 251 256 261 264 268 270 271
281 246 206 180 136 112 125 131 131 131 127 128 132 136 131 124 123 125 124 117 108 122 128 124 116 129 139 151 136 136 149 166 188 207 222 235 247 258 263 266 269 271 272 272
344 56 125 125 111 91 78 92 109 115 113 110 110 116 118 117 113 100 96 124 133 123 111 121 132 155 159 135 127 140 156 178 203 215 228 239 248 257 263 266 269 272 272 271
28 57 85 100 104 95 78 74 84 98 105 110 116 120 120 119 120 120 111 115 121 119 104 127 155 153 124 101 125 143 169 202 223 232 240 244 248 253 261 267 269 270 271 272
49 64 76 86 94 93 85 74 75 82 87 88 91 100 109 106 86 74 108 124 116 101 103 139 141 129 83 98 126 161 204 226 239 246 250 253 255 257 260 264 268 269 270 271
64 75 82 88 90 91 95 93 88 87 86 84 80 75 74 86 107 107 102 115 119 95 96 115 105 73 68 112 171 223 243 247 253 257 253 259 262 264 266 267 268 271 272 271
62 69 71 73 83 94 99 98 96 94 94 91 82 76 76 79 89 92 91 92 98 83 70 68 73 50 57 83 268 271 269 279 289 280 265 267 267 268 269 269 270 271 271 271
67 71 74 73 68 72 82 88 94 92 92 99 95 85 84 84 84 85 84 81 77 71 65 53 40 17 335 306 293 285 278 274 274 273 272 272 272 271 271 271 273 273 273 272